(°C)
10°
(°C)
NE
NNE
NNE
N
N
N
N
(km/h)
10-17
10-15
10-16
11-16
10-16
11-15
12-15
(mm)
0
0
0
0
0
0
0
(%)
22
8
0
1
1
8
1

Elevația soarelui

/ -34.7°
sun-icon
UV 2
06:31
18:29
Al doilea pătrar (253°)
20:56
13:40

METAR pentru 53.5°N 50.15°E (UWWW)

Ora Condiții Temperatură/
Punctul de rouă
Vânt Vizibilitate Vremea Nori Presiune Schimbă Brut
VFR 10°C / 6°C 40º 8kt >10km - Scattered Clouds 3300ft 1003 No Significant change UWWW 262130Z 04004MPS 9999 SCT033 10/06 Q1003 R15/CLRD60 NOSIG RMK QFE741/0988
VFR 10°C / 6°C 60º 8kt >10km - Scattered Clouds 3300ft 1004 No Significant change UWWW 262100Z 06004MPS 9999 SCT033 10/06 Q1004 R15/CLRD60 NOSIG RMK QFE741/0989
VFR 10°C / 7°C 60º 6kt >10km - Scattered Clouds 3300ft 1004 No Significant change UWWW 262030Z 06003MPS 9999 SCT033 10/07 Q1004 R15/CLRD60 NOSIG RMK QFE741/0989
VFR 10°C / 7°C 60º variable 050º to 150º 6kt >10km - Scattered Clouds 3300ft 1004 No Significant change UWWW 262000Z 06003MPS 050V150 9999 SCT033 10/07 Q1004 R15/CLRD60 NOSIG RMK QFE741/0989
VFR 11°C / 7°C 60º 6kt >10km - Scattered Clouds 3300ft 1004 No Significant change UWWW 261930Z 06003MPS 9999 SCT033 11/07 Q1004 R15/CLRD60 NOSIG RMK QFE741/0989
VFR 11°C / 8°C 50º 6kt >10km - Scattered Clouds 3300ft 1004 No Significant change UWWW 261900Z 05003MPS 9999 SCT033 11/08 Q1004 R15/CLRD60 NOSIG RMK QFE741/0989
VFR 11°C / 8°C 80º variable 070º to 130º 6kt >10km - Scattered Clouds 3300ft 1004 No Significant change UWWW 261830Z 08003MPS 070V130 9999 SCT033 11/08 Q1004 R15/CLRD60 NOSIG RMK QFE742/0989
VFR 12°C / 8°C 90º 6kt >10km - Scattered Clouds 3300ft 1004 No Significant change UWWW 261800Z 09003MPS 9999 SCT033 12/08 Q1004 R15/CLRD60 NOSIG RMK QFE742/0989
VFR 12°C / 8°C 140º variable 110º to 170º 4kt >10km - Scattered Clouds 3300ft 1004 No Significant change UWWW 261730Z 14002MPS 110V170 9999 SCT033 12/08 Q1004 R15/CLRD60 NOSIG RMK QFE742/0989
VFR 12°C / 8°C 90º 6kt >10km - Scattered Clouds 3300ft 1004 No Significant change UWWW 261700Z 09003MPS 9999 SCT033 12/08 Q1004 R15/CLRD60 NOSIG RMK QFE742/0989
VFR 12°C / 8°C 90º 6kt >10km - Scattered Clouds 3300ft 1005 No Significant change UWWW 261630Z 09003MPS 9999 SCT033 12/08 Q1005 R15/CLRD60 NOSIG RMK QFE742/0989
VFR 12°C / 8°C 100º 8kt >10km - Scattered Clouds 3300ft 1005 No Significant change UWWW 261600Z 10004MPS 9999 SCT033 12/08 Q1005 R15/CLRD60 NOSIG RMK QFE742/0989
VFR 13°C / 8°C 90º 6kt >10km - Scattered Clouds 3300ft 1005 No Significant change UWWW 261530Z 09003MPS 9999 SCT033 13/08 Q1005 R15/CLRD60 NOSIG RMK QFE742/0990
VFR 13°C / 8°C 90º 6kt >10km - Scattered Clouds 3300ft 1005 No Significant change UWWW 261500Z 09003MPS 9999 SCT033 13/08 Q1005 R15/CLRD60 NOSIG RMK QFE742/0990
VFR 13°C / 8°C 100º 6kt >10km - Scattered Clouds 3300ft 1005 No Significant change UWWW 261430Z 10003MPS 9999 SCT033 13/08 Q1005 R15/CLRD60 NOSIG RMK QFE742/0990
VFR 14°C / 8°C 110º 6kt >10km - Scattered Clouds 3300ft 1005 No Significant change UWWW 261400Z 11003MPS 9999 SCT033 14/08 Q1005 R15/CLRD60 NOSIG RMK QFE742/0990
VFR 15°C / 7°C 140º 6kt >10km - Scattered Clouds 3300ft 1005 No Significant change UWWW 261330Z 14003MPS 9999 SCT033 15/07 Q1005 R15/CLRD60 NOSIG RMK QFE742/0990
VFR 15°C / 7°C 180º 4kt >10km - Scattered Clouds 3300ft 1005 No Significant change UWWW 261300Z 18002MPS 9999 SCT033 15/07 Q1005 R15/CLRD60 NOSIG RMK QFE743/0990
VFR 15°C / 7°C 180º variable 150º to 210º 6kt >10km - Scattered Clouds 3300ft 1006 No Significant change UWWW 261230Z 18003MPS 150V210 9999 SCT033 15/07 Q1006 R15/CLRD60 NOSIG RMK QFE743/0990
VFR 15°C / 7°C 190º variable 160º to 220º 8kt >10km - Scattered Clouds 3300ft 1006 No Significant change UWWW 261200Z 19004MPS 160V220 9999 SCT033 15/07 Q1006 R15/CLRD60 NOSIG RMK QFE743/0991
VFR 15°C / 7°C 200º 8kt >10km - Clouds and Visibility OK 1006 No Significant change UWWW 261130Z 20004MPS CAVOK 15/07 Q1006 R15/CLRD60 NOSIG RMK QFE743/0991
VFR 16°C / 7°C 180º variable 150º to 210º 8kt >10km - Clouds and Visibility OK 1006 No Significant change UWWW 261100Z 18004MPS 150V210 CAVOK 16/07 Q1006 R15/CLRD60 NOSIG RMK QFE743/0991
VFR 15°C / 7°C 190º 8kt >10km - Scattered Clouds 3300ft 1006 No Significant change UWWW 261030Z 19004MPS 9999 SCT033 15/07 Q1006 R15/CLRD60 NOSIG RMK QFE743/0991
VFR 15°C / 7°C 190º 8kt >10km - Scattered Clouds 3300ft 1006 No Significant change UWWW 261000Z 19004MPS 9999 SCT033 15/07 Q1006 R15/CLRD60 NOSIG RMK QFE743/0991

VFR

10°C / 6°C

[Mai mult]
Vânt 40º 8kt
Vizibilitate >10km
Vremea -
Nori Scattered Clouds 3300ft
Presiune 1003
Schimbă No Significant change
Brut UWWW 262130Z 04004MPS 9999 SCT033 10/06 Q1003 R15/CLRD60 NOSIG RMK QFE741/0988

VFR

10°C / 6°C

[Mai mult]
Vânt 60º 8kt
Vizibilitate >10km
Vremea -
Nori Scattered Clouds 3300ft
Presiune 1004
Schimbă No Significant change
Brut UWWW 262100Z 06004MPS 9999 SCT033 10/06 Q1004 R15/CLRD60 NOSIG RMK QFE741/0989

VFR

10°C / 7°C

[Mai mult]
Vânt 60º 6kt
Vizibilitate >10km
Vremea -
Nori Scattered Clouds 3300ft
Presiune 1004
Schimbă No Significant change
Brut UWWW 262030Z 06003MPS 9999 SCT033 10/07 Q1004 R15/CLRD60 NOSIG RMK QFE741/0989

VFR

10°C / 7°C

[Mai mult]
Vânt 60º variable 050º to 150º 6kt
Vizibilitate >10km
Vremea -
Nori Scattered Clouds 3300ft
Presiune 1004
Schimbă No Significant change
Brut UWWW 262000Z 06003MPS 050V150 9999 SCT033 10/07 Q1004 R15/CLRD60 NOSIG RMK QFE741/0989

VFR

11°C / 7°C

[Mai mult]
Vânt 60º 6kt
Vizibilitate >10km
Vremea -
Nori Scattered Clouds 3300ft
Presiune 1004
Schimbă No Significant change
Brut UWWW 261930Z 06003MPS 9999 SCT033 11/07 Q1004 R15/CLRD60 NOSIG RMK QFE741/0989

VFR

11°C / 8°C

[Mai mult]
Vânt 50º 6kt
Vizibilitate >10km
Vremea -
Nori Scattered Clouds 3300ft
Presiune 1004
Schimbă No Significant change
Brut UWWW 261900Z 05003MPS 9999 SCT033 11/08 Q1004 R15/CLRD60 NOSIG RMK QFE741/0989

VFR

11°C / 8°C

[Mai mult]
Vânt 80º variable 070º to 130º 6kt
Vizibilitate >10km
Vremea -
Nori Scattered Clouds 3300ft
Presiune 1004
Schimbă No Significant change
Brut UWWW 261830Z 08003MPS 070V130 9999 SCT033 11/08 Q1004 R15/CLRD60 NOSIG RMK QFE742/0989

VFR

12°C / 8°C

[Mai mult]
Vânt 90º 6kt
Vizibilitate >10km
Vremea -
Nori Scattered Clouds 3300ft
Presiune 1004
Schimbă No Significant change
Brut UWWW 261800Z 09003MPS 9999 SCT033 12/08 Q1004 R15/CLRD60 NOSIG RMK QFE742/0989

VFR

12°C / 8°C

[Mai mult]
Vânt 140º variable 110º to 170º 4kt
Vizibilitate >10km
Vremea -
Nori Scattered Clouds 3300ft
Presiune 1004
Schimbă No Significant change
Brut UWWW 261730Z 14002MPS 110V170 9999 SCT033 12/08 Q1004 R15/CLRD60 NOSIG RMK QFE742/0989

VFR

12°C / 8°C

[Mai mult]
Vânt 90º 6kt
Vizibilitate >10km
Vremea -
Nori Scattered Clouds 3300ft
Presiune 1004
Schimbă No Significant change
Brut UWWW 261700Z 09003MPS 9999 SCT033 12/08 Q1004 R15/CLRD60 NOSIG RMK QFE742/0989

VFR

12°C / 8°C

[Mai mult]
Vânt 90º 6kt
Vizibilitate >10km
Vremea -
Nori Scattered Clouds 3300ft
Presiune 1005
Schimbă No Significant change
Brut UWWW 261630Z 09003MPS 9999 SCT033 12/08 Q1005 R15/CLRD60 NOSIG RMK QFE742/0989

VFR

12°C / 8°C

[Mai mult]
Vânt 100º 8kt
Vizibilitate >10km
Vremea -
Nori Scattered Clouds 3300ft
Presiune 1005
Schimbă No Significant change
Brut UWWW 261600Z 10004MPS 9999 SCT033 12/08 Q1005 R15/CLRD60 NOSIG RMK QFE742/0989

VFR

13°C / 8°C

[Mai mult]
Vânt 90º 6kt
Vizibilitate >10km
Vremea -
Nori Scattered Clouds 3300ft
Presiune 1005
Schimbă No Significant change
Brut UWWW 261530Z 09003MPS 9999 SCT033 13/08 Q1005 R15/CLRD60 NOSIG RMK QFE742/0990

VFR

13°C / 8°C

[Mai mult]
Vânt 90º 6kt
Vizibilitate >10km
Vremea -
Nori Scattered Clouds 3300ft
Presiune 1005
Schimbă No Significant change
Brut UWWW 261500Z 09003MPS 9999 SCT033 13/08 Q1005 R15/CLRD60 NOSIG RMK QFE742/0990

VFR

13°C / 8°C

[Mai mult]
Vânt 100º 6kt
Vizibilitate >10km
Vremea -
Nori Scattered Clouds 3300ft
Presiune 1005
Schimbă No Significant change
Brut UWWW 261430Z 10003MPS 9999 SCT033 13/08 Q1005 R15/CLRD60 NOSIG RMK QFE742/0990

VFR

14°C / 8°C

[Mai mult]
Vânt 110º 6kt
Vizibilitate >10km
Vremea -
Nori Scattered Clouds 3300ft
Presiune 1005
Schimbă No Significant change
Brut UWWW 261400Z 11003MPS 9999 SCT033 14/08 Q1005 R15/CLRD60 NOSIG RMK QFE742/0990

VFR

15°C / 7°C

[Mai mult]
Vânt 140º 6kt
Vizibilitate >10km
Vremea -
Nori Scattered Clouds 3300ft
Presiune 1005
Schimbă No Significant change
Brut UWWW 261330Z 14003MPS 9999 SCT033 15/07 Q1005 R15/CLRD60 NOSIG RMK QFE742/0990

VFR

15°C / 7°C

[Mai mult]
Vânt 180º 4kt
Vizibilitate >10km
Vremea -
Nori Scattered Clouds 3300ft
Presiune 1005
Schimbă No Significant change
Brut UWWW 261300Z 18002MPS 9999 SCT033 15/07 Q1005 R15/CLRD60 NOSIG RMK QFE743/0990

VFR

15°C / 7°C

[Mai mult]
Vânt 180º variable 150º to 210º 6kt
Vizibilitate >10km
Vremea -
Nori Scattered Clouds 3300ft
Presiune 1006
Schimbă No Significant change
Brut UWWW 261230Z 18003MPS 150V210 9999 SCT033 15/07 Q1006 R15/CLRD60 NOSIG RMK QFE743/0990

VFR

15°C / 7°C

[Mai mult]
Vânt 190º variable 160º to 220º 8kt
Vizibilitate >10km
Vremea -
Nori Scattered Clouds 3300ft
Presiune 1006
Schimbă No Significant change
Brut UWWW 261200Z 19004MPS 160V220 9999 SCT033 15/07 Q1006 R15/CLRD60 NOSIG RMK QFE743/0991

VFR

15°C / 7°C

[Mai mult]
Vânt 200º 8kt
Vizibilitate >10km
Vremea -
Nori Clouds and Visibility OK
Presiune 1006
Schimbă No Significant change
Brut UWWW 261130Z 20004MPS CAVOK 15/07 Q1006 R15/CLRD60 NOSIG RMK QFE743/0991

VFR

16°C / 7°C

[Mai mult]
Vânt 180º variable 150º to 210º 8kt
Vizibilitate >10km
Vremea -
Nori Clouds and Visibility OK
Presiune 1006
Schimbă No Significant change
Brut UWWW 261100Z 18004MPS 150V210 CAVOK 16/07 Q1006 R15/CLRD60 NOSIG RMK QFE743/0991

VFR

15°C / 7°C

[Mai mult]
Vânt 190º 8kt
Vizibilitate >10km
Vremea -
Nori Scattered Clouds 3300ft
Presiune 1006
Schimbă No Significant change
Brut UWWW 261030Z 19004MPS 9999 SCT033 15/07 Q1006 R15/CLRD60 NOSIG RMK QFE743/0991

VFR

15°C / 7°C

[Mai mult]
Vânt 190º 8kt
Vizibilitate >10km
Vremea -
Nori Scattered Clouds 3300ft
Presiune 1006
Schimbă No Significant change
Brut UWWW 261000Z 19004MPS 9999 SCT033 15/07 Q1006 R15/CLRD60 NOSIG RMK QFE743/0991

TAF pentru 53.5°N 50.15°E (UWWW)

From till


Maximum Temperature 12ºC on . Minimum Temperature 8ºC on .
From till Wind 40º 6kt. Gust 17kt. Visibility 6000m. Broken Clouds 1600ft.
Temporarly from till Visibility 997.791m. Showers Rain Mist . Broken Clouds 400ft. Overcast 1100ft.
Becoming from till Wind 40º 14kt. Gust 27kt. Visibility 6000m. Broken Clouds 1600ft.
Temporarly from till Wind 80º 14kt.

Brut: TAF UWWW 261951Z 2621/2721 04003G09MPS 6000 BKN016 TX12/2710Z TN08/2703Z TEMPO 2621/2706 1000 SHRA BR BKN004 OVC011CB BECMG 2706/2707 04007G14MPS TEMPO 2711/2721 08007MPS

Imagini satelitare și ploaie pentru 53.5°N 50.15°E

Markerul cu locaţia este poziţionat pe 53.5°N 50.15°E. [Mai mult]

Imaginea satelitară în timp real combină lumina vizibilă din timpul zilei cu radiația cu infraroșu din timpul nopții. Pe timp de noapte, imaginea nu este întunecată, deoarece radiația cu infraroșu poate detecta diferențele de temperatură. Din păcate, norii joși și ceața sunt greu de recunoscut față de temperatura de la sol, din această cauză putând fi invizibili pe timp de noapte. Imaginile satelitare Meteosat pentru Europa sunt actualizate în timp real din 5 în 5 minute. Imaginile GOES-16/GOES-17 (America de Nord și de Sud) și Himawari (Asia) sunt actualizate din 10 în 10 minute.

Toate drepturile rezervate 2021 EUMETSAT / meteoblue. / Toate drepturile rezervate 2021 meteoblue

Radar și nowcast de precipitații pentru 53.5°N 50.15°E

Burniță
Ușoară
Moderat
Greu
Foarte greu
Grindină

Markerul de locație este plasat în 53.5°N 50.15°E. Această animație arată radarul de precipitații pentru ultima oră, precum și o 1h prognoză. Ploaia sau ninsoarea slabă ar putea fi invizibilă pentru radar. Intensitatea precipitațiilor este codificată prin culori, de la albastru deschis la portocaliu.